Time,TemperatureF,DewpointF,PressureIn,WindDirection,WindDirectionDegrees,WindSpeedMPH,WindSpeedGustMPH,Humidity,HourlyPrecipIn,Conditions,Clouds,dailyrainin,SoftwareType,DateUTC
2013-02-23 00:03:00,31.0,-99.9,-100.00,North,-999,-999.0,-999.0,-999,0.00,,,0.00,,2013-02-23 05:03:00,
2013-02-23 00:12:00,31.0,-99.9,-100.00,North,-999,-999.0,-999.0,-999,0.00,,,0.00,,2013-02-23 05:12:00,
2013-02-23 00:42:00,31.0,-99.9,-100.00,North,-999,-999.0,-999.0,-999,0.00,,,0.00,,2013-02-23 05:42:00,
2013-02-23 00:52:00,31.0,-99.9,-100.00,North,-999,-999.0,-999.0,-999,0.00,,,0.00,,2013-02-23 05:52:00,
2013-02-23 01:02:00,31.0,-99.9,-100.00,North,-999,-999.0,-999.0,-999,0.00,,,0.00,,2013-02-23 06:02:00,
2013-02-23 01:11:00,31.0,-99.9,-100.00,North,-999,-999.0,-999.0,-999,0.00,,,0.00,,2013-02-23 06:11:00,
2013-02-23 01:32:00,30.0,-99.9,-100.00,North,-999,-999.0,-999.0,-999,0.00,,,0.00,,2013-02-23 06:32:00,
2013-02-23 01:42:00,30.0,-99.9,-100.00,North,-999,-999.0,-999.0,-999,0.00,,,0.00,,2013-02-23 06:42:00,
2013-02-23 01:52:00,30.0,-99.9,-100.00,North,-999,-999.0,-999.0,-999,0.00,,,0.00,,2013-02-23 06:52:00,
2013-02-23 02:02:00,30.0,-99.9,-100.00,North,-999,-999.0,-999.0,-999,0.00,,,0.00,,2013-02-23 07:02:00,
2013-02-23 02:11:00,30.0,-99.9,-100.00,North,-999,-999.0,-999.0,-999,0.00,,,0.00,,2013-02-23 07:11:00,
2013-02-23 02:42:00,31.0,-99.9,-100.00,North,-999,-999.0,-999.0,-999,0.00,,,0.00,,2013-02-23 07:42:00,
2013-02-23 02:52:00,31.0,-99.9,-100.00,North,-999,-999.0,-999.0,-999,0.00,,,0.00,,2013-02-23 07:52:00,
2013-02-23 03:01:00,31.0,-99.9,-100.00,North,-999,-999.0,-999.0,-999,0.00,,,0.00,,2013-02-23 08:01:00,
2013-02-23 03:11:00,31.0,-99.9,-100.00,North,-999,-999.0,-999.0,-999,0.00,,,0.00,,2013-02-23 08:11:00,
2013-02-23 03:42:00,34.0,-99.9,-100.00,North,-999,-999.0,-999.0,-999,0.00,,,0.00,,2013-02-23 08:42:00,
2013-02-23 03:53:00,34.0,-99.9,-100.00,North,-999,-999.0,-999.0,-999,0.00,,,0.00,,2013-02-23 08:53:00,
2013-02-23 04:02:00,34.0,-99.9,-100.00,North,-999,-999.0,-999.0,-999,0.00,,,0.00,,2013-02-23 09:02:00,
2013-02-23 04:11:00,34.0,-99.9,-100.00,North,-999,-999.0,-999.0,-999,0.00,,,0.00,,2013-02-23 09:11:00,
2013-02-23 08:02:00,38.0,-99.9,-100.00,North,-999,-999.0,-999.0,-999,-99.99,,,0.00,,2013-02-23 13:02:00,
2013-02-23 08:12:00,38.0,-99.9,-100.00,North,-999,-999.0,-999.0,-999,-99.99,,,0.00,,2013-02-23 13:12:00,
2013-02-23 10:02:00,40.0,-99.9,-100.00,North,-999,-999.0,-999.0,-999,-99.99,,,0.00,,2013-02-23 15:02:00,
2013-02-23 10:12:00,40.0,-99.9,-100.00,North,-999,-999.0,-999.0,-999,-99.99,,,0.00,,2013-02-23 15:12:00,
2013-02-23 10:42:00,40.0,-99.9,-100.00,North,-999,-999.0,-999.0,-999,0.00,,,0.00,,2013-02-23 15:42:00,
2013-02-23 10:52:00,40.0,-99.9,-100.00,North,-999,-999.0,-999.0,-999,0.00,,,0.00,,2013-02-23 15:52:00,
2013-02-23 11:02:00,40.0,-99.9,-100.00,North,-999,-999.0,-999.0,-999,0.00,,,0.00,,2013-02-23 16:02:00,
2013-02-23 11:11:00,40.0,-99.9,-100.00,North,-999,-999.0,-999.0,-999,0.00,,,0.00,,2013-02-23 16:11:00,
2013-02-23 11:43:00,40.0,-99.9,-100.00,North,-999,-999.0,-999.0,-999,0.00,,,0.00,,2013-02-23 16:43:00,
2013-02-23 11:52:00,40.0,-99.9,-100.00,North,-999,-999.0,-999.0,-999,0.00,,,0.00,,2013-02-23 16:52:00,
2013-02-23 12:02:00,40.0,-99.9,-100.00,North,-999,-999.0,-999.0,-999,0.00,,,0.00,,2013-02-23 17:02:00,
2013-02-23 12:11:00,40.0,-99.9,-100.00,North,-999,-999.0,-999.0,-999,0.00,,,0.00,,2013-02-23 17:11:00,
2013-02-23 12:42:00,41.0,-99.9,-100.00,North,-999,-999.0,-999.0,-999,0.00,,,0.00,,2013-02-23 17:42:00,
2013-02-23 12:52:00,41.0,-99.9,-100.00,North,-999,-999.0,-999.0,-999,0.00,,,0.00,,2013-02-23 17:52:00,
2013-02-23 13:02:00,41.0,-99.9,-100.00,North,-999,-999.0,-999.0,-999,0.00,,,0.00,,2013-02-23 18:02:00,
2013-02-23 13:12:00,41.0,-99.9,-100.00,North,-999,-999.0,-999.0,-999,0.00,,,0.00,,2013-02-23 18:12:00,
2013-02-23 13:42:00,40.0,-99.9,-100.00,North,-999,-999.0,-999.0,-999,0.00,,,0.00,,2013-02-23 18:42:00,
2013-02-23 13:52:00,40.0,-99.9,-100.00,North,-999,-999.0,-999.0,-999,0.00,,,0.00,,2013-02-23 18:52:00,
2013-02-23 14:02:00,40.0,-99.9,-100.00,North,-999,-999.0,-999.0,-999,0.00,,,0.00,,2013-02-23 19:02:00,
2013-02-23 14:12:00,40.0,-99.9,-100.00,North,-999,-999.0,-999.0,-999,0.00,,,0.00,,2013-02-23 19:12:00,
2013-02-23 14:42:00,40.0,-99.9,-100.00,North,-999,-999.0,-999.0,-999,0.00,,,0.00,,2013-02-23 19:42:00,
2013-02-23 14:52:00,40.0,-99.9,-100.00,North,-999,-999.0,-999.0,-999,0.00,,,0.00,,2013-02-23 19:52:00,
2013-02-23 15:02:00,40.0,-99.9,-100.00,North,-999,-999.0,-999.0,-999,0.00,,,0.00,,2013-02-23 20:02:00,
2013-02-23 15:11:00,40.0,-99.9,-100.00,North,-999,-999.0,-999.0,-999,0.00,,,0.00,,2013-02-23 20:11:00,
2013-02-23 15:42:00,39.0,-99.9,-100.00,North,-999,-999.0,-999.0,-999,0.00,,,0.00,,2013-02-23 20:42:00,
2013-02-23 15:53:00,39.0,-99.9,-100.00,North,-999,-999.0,-999.0,-999,0.00,,,0.00,,2013-02-23 20:53:00,
2013-02-23 16:02:00,39.0,-99.9,-100.00,North,-999,-999.0,-999.0,-999,0.00,,,0.00,,2013-02-23 21:02:00,
2013-02-23 16:12:00,39.0,-99.9,-100.00,North,-999,-999.0,-999.0,-999,0.00,,,0.00,,2013-02-23 21:12:00,
2013-02-23 16:42:00,39.0,-99.9,-100.00,North,-999,-999.0,-999.0,-999,0.02,,,0.02,,2013-02-23 21:42:00,
2013-02-23 16:52:00,39.0,-99.9,-100.00,North,-999,-999.0,-999.0,-999,0.02,,,0.02,,2013-02-23 21:52:00,
2013-02-23 17:02:00,39.0,-99.9,-100.00,North,-999,-999.0,-999.0,-999,0.02,,,0.02,,2013-02-23 22:02:00,
2013-02-23 17:12:00,39.0,-99.9,-100.00,North,-999,-999.0,-999.0,-999,0.02,,,0.02,,2013-02-23 22:12:00,
2013-02-23 17:32:00,39.0,-99.9,-100.00,North,-999,-999.0,-999.0,-999,0.01,,,0.03,,2013-02-23 22:32:00,
2013-02-23 17:42:00,39.0,-99.9,-100.00,North,-999,-999.0,-999.0,-999,0.01,,,0.03,,2013-02-23 22:42:00,
2013-02-23 17:52:00,39.0,-99.9,-100.00,North,-999,-999.0,-999.0,-999,0.01,,,0.03,,2013-02-23 22:52:00,
2013-02-23 18:02:00,39.0,-99.9,-100.00,North,-999,-999.0,-999.0,-999,0.01,,,0.03,,2013-02-23 23:02:00,
2013-02-23 18:12:00,39.0,-99.9,-100.00,North,-999,-999.0,-999.0,-999,0.01,,,0.03,,2013-02-23 23:12:00,
2013-02-23 18:42:00,39.0,-99.9,-100.00,North,-999,-999.0,-999.0,-999,0.01,,,0.04,,2013-02-23 23:42:00,
2013-02-23 18:52:00,39.0,-99.9,-100.00,North,-999,-999.0,-999.0,-999,0.01,,,0.04,,2013-02-23 23:52:00,
2013-02-23 19:02:00,39.0,-99.9,-100.00,North,-999,-999.0,-999.0,-999,0.01,,,0.04,,2013-02-24 00:02:00,
2013-02-23 19:11:00,39.0,-99.9,-100.00,North,-999,-999.0,-999.0,-999,0.01,,,0.04,,2013-02-24 00:11:00,
2013-02-23 19:32:00,38.0,-99.9,-100.00,North,-999,-999.0,-999.0,-999,0.02,,,0.06,,2013-02-24 00:32:00,
2013-02-23 19:42:00,38.0,-99.9,-100.00,North,-999,-999.0,-999.0,-999,0.02,,,0.06,,2013-02-24 00:42:00,
2013-02-23 19:52:00,38.0,-99.9,-100.00,North,-999,-999.0,-999.0,-999,0.02,,,0.06,,2013-02-24 00:52:00,
2013-02-23 20:02:00,38.0,-99.9,-100.00,North,-999,-999.0,-999.0,-999,0.02,,,0.06,,2013-02-24 01:02:00,
2013-02-23 20:12:00,38.0,-99.9,-100.00,North,-999,-999.0,-999.0,-999,0.02,,,0.06,,2013-02-24 01:12:00,
2013-02-23 20:32:00,38.0,-99.9,-100.00,North,-999,-999.0,-999.0,-999,0.01,,,0.07,,2013-02-24 01:32:00,
2013-02-23 20:52:00,38.0,-99.9,-100.00,North,-999,-999.0,-999.0,-999,0.01,,,0.07,,2013-02-24 01:52:00,
2013-02-23 21:02:00,38.0,-99.9,-100.00,North,-999,-999.0,-999.0,-999,0.01,,,0.07,,2013-02-24 02:02:00,
2013-02-23 21:12:00,38.0,-99.9,-100.00,North,-999,-999.0,-999.0,-999,0.01,,,0.07,,2013-02-24 02:12:00,
2013-02-23 21:42:00,39.0,-99.9,-100.00,North,-999,-999.0,-999.0,-999,0.02,,,0.09,,2013-02-24 02:42:00,
2013-02-23 21:52:00,39.0,-99.9,-100.00,North,-999,-999.0,-999.0,-999,0.02,,,0.09,,2013-02-24 02:52:00,
2013-02-23 22:03:00,39.0,-99.9,-100.00,North,-999,-999.0,-999.0,-999,0.02,,,0.09,,2013-02-24 03:03:00,
2013-02-23 22:12:00,39.0,-99.9,-100.00,North,-999,-999.0,-999.0,-999,0.02,,,0.09,,2013-02-24 03:12:00,
2013-02-23 22:42:00,39.0,-99.9,-100.00,North,-999,-999.0,-999.0,-999,0.01,,,0.10,,2013-02-24 03:42:00,
2013-02-23 22:52:00,39.0,-99.9,-100.00,North,-999,-999.0,-999.0,-999,0.01,,,0.10,,2013-02-24 03:52:00,
2013-02-23 23:02:00,39.0,-99.9,-100.00,North,-999,-999.0,-999.0,-999,0.01,,,0.10,,2013-02-24 04:02:00,
2013-02-23 23:12:00,39.0,-99.9,-100.00,North,-999,-999.0,-999.0,-999,0.01,,,0.10,,2013-02-24 04:12:00,
2013-02-23 23:42:00,39.0,-99.9,-100.00,North,-999,-999.0,-999.0,-999,0.00,,,0.10,,2013-02-24 04:42:00,
2013-02-23 23:52:00,39.0,-99.9,-100.00,North,-999,-999.0,-999.0,-999,0.00,,,0.10,,2013-02-24 04:52:00,